Weather Roundup
Issued by NWS Chicago, IL

Home | Current Version | Previous Version | Text Only | Print | Product List | Glossary Off
Versions: 1 2 3 4 5 6 7 8 9 10 11 12 13 14 15 16 17 18 19 20 21 22 23 24 25 26 27 28 29 30 31 32 33 34 35 36 37 38 39 40 41 42 43 44 45 46 47 48 49 50

000
NZUS59 KLOT 282309
HRRLOT

CHICAGO AREA WEATHER ROUNDUP
NATIONAL WEATHER SERVICE CHICAGO/ROMEOVILLE IL
600 PM CDT SUN AUG 28 2016

NOTE: "FAIR" INDICATES FEW OR NO CLOUDS BELOW 12,000 FEET WITH NO
SIGNIFICANT WEATHER AND/OR OBSTRUCTIONS TO VISIBILITY.

* THESE STATIONS ARE NOT UNDER NWS QUALITY CONTROL. THEY ALSO MAY NOT
  REPORT WEATHER SUCH AS PRECIPITATION OR FOG.

ILZ005-006-012>014-019>023-290000-
NORTHEAST ILLINOIS

CITY           SKY/WX    TMP DP  RH WIND       PRES   REMARKS
OHARE          CLOUDY    77  69  76 E8        30.17S
MIDWAY         CLOUDY    78  68  71 E10       30.17R HX  80
AURORA         PTSUNNY   78  72  81 S6        30.17S HX  80
LANSING*       CLOUDY    74  73  93 NE8       30.17S
JOLIET*        CLOUDY    76  74  93 N3        30.17R
WAUKEGAN       MOSUNNY   73  68  84 E9        30.18S
DUPAGE AIRPORT CLOUDY    80  69  69 E5        30.16S HX  83
WHEELING       CLOUDY    76  69  79 NE5       30.19R
KANKAKEE*      LGT RAIN  74  73  95 CALM      30.17R
MORRIS*        CLOUDY    73  71  94 CALM      30.16R
LEWIS AIRPORT* CLOUDY    76  75  96 CALM      30.17R
$$

WIZ051-052-058>065-066-070>072-290000-
SOUTHEAST WISCONSIN

CITY           SKY/WX    TMP DP  RH WIND       PRES   REMARKS
MILWAUKEE      MOSUNNY   74  67  78 E8        30.18F
KENOSHA*       SUNNY     75  68  78 E10       30.19S
RACINE*        MOSUNNY   74  67  78 NE7       30.20F
BURLINGTON     SUNNY     77  67  71 E5        30.18R
WAUKESHA       MOSUNNY   77  66  69 E8        30.19F
$$

INZ001>003-010>013-019-020-290000-
NORTHWEST INDIANA

CITY           SKY/WX    TMP DP  RH WIND       PRES   REMARKS
GARY*          PTSUNNY   77  73  88 NE8       30.18R
MICHIGAN CITY* NOT AVBL
RENSSELAER*    NOT AVBL
VALPARAISO     CLOUDY    74  71  91 CALM      30.18S
$$

LMZ740>746-290000-
SOUTHERN LAKE MICHIGAN

STATION/POSITION TIME  SKY/WX   TEMP WIND        PRES    VSBY
                                AIR  DIR/SP/G
                 (UTC)          (F)  (DEG/KT/KT) (MB)    (MI)
HARRISON CRIB    2200            74   30/  8/  8   N/A
BURNHAM HARBOR   2300            73  360/  3/  7   N/A
CALUMET HARBOR   2200            74              1021.0F
BURNS HARBOR     2200            75   70/  9/ 13 1021.7F
MICHIGAN CITY    2200            74   30/ 10/ 11   N/A
$$

ABBREVIATIONS USED IN REMARKS
   TC - TEMPERATURE IN CELSIUS
  WCI - WIND CHILL INDEX
   HX - HEAT INDEX
  VSB - VISIBILITY
$$




USA.gov is the U.S. government's official web portal to all federal, state and local government web resources and services.